Location: Unspecified
(0.0000°N, 0.0000°E)
Time: 19:53:46
(UTC+02:00)

IUS-9 SRM-1 - Visible Passes

Search period start: 28 April 2017 00:00
Search period end: 08 May 2017 00:00
Orbit: 238 x 19821 km, 26.5° (Epoch: 25 April)

Date Brightness Start Highest point End Pass type
(mag) Time Alt. Az. Time Alt. Az. Time Alt. Az.
28 Apr 7.3 17:46:39 10° W 21:53:57 53° N 22:26:04 26° ENE visible
29 Apr 7.6 16:52:59 10° W 18:40:51 55° NW 21:40:25 13° ENE visible
30 Apr 7.9 16:01:27 10° W 17:13:05 63° NW 20:50:29 10° ENE visible
01 May 7.7 02:31:01 10° WNW 02:43:16 20° WNW 02:43:16 20° WNW visible
02 May 7.3 01:18:39 10° WNW 01:57:28 35° WNW 01:57:28 35° WNW visible
02 May 6.9 23:29:37 10° WNW 01:11:36 52° NW 01:11:36 52° NW visible
03 May 6.7 20:59:26 10° WNW 00:25:42 66° NNW 00:25:42 66° NNW visible
04 May 6.7 19:32:22 10° WNW 23:35:54 63° NNE 23:39:45 60° NE visible
05 May 6.9 18:26:16 10° W 22:39:43 59° NNE 22:53:45 43° ENE visible
06 May 7.2 17:27:59 10° W 21:37:13 56° N 22:07:42 26° ENE visible
07 May 7.5 16:33:35 10° W 20:15:12 55° N 21:21:36 12° ENE visible
